EW4557 Weather Reports


Display with metric or nautical units.
time (UTC)temp
F
wind
direction
speed
MPH
gust
MPH
rain 1hr
in
rain 24hr
in
rain mn
in
humidity
%
barometer
mb
20260506040016 50 0 4.0 11.0 0.00 0.01 0.01 64 1010.5
20260506035056 51 0 3.0 8.0 0.00 0.01 0.01 64 1010.4
20260506034015 51 0 4.0 9.0 0.00 0.01 0.01 63 1010.1
20260506033015 52 0 3.0 10.0 0.00 0.01 0.01 63 1010.3
20260506032015 52 0 4.0 9.0 0.00 0.01 0.01 62 1009.7
20260506031135 52 0 4.0 10.0 0.00 0.01 0.01 63 1009.4
20260506025015 53 0 6.0 9.0 0.00 0.01 0.01 63 1008.9
20260506024015 53 0 1.0 8.0 0.00 0.01 0.01 63 1008.8
20260506023135 53 0 4.0 13.0 0.00 0.01 0.01 63 1008.6
20260506022136 53 0 2.0 9.0 0.00 0.01 0.01 63 1008.4
20260506021015 54 0 3.0 13.0 0.00 0.01 0.01 62 1008.3
20260506020055 54 0 5.0 12.0 0.00 0.01 0.01 62 1008.0
20260506015055 54 0 6.0 11.0 0.00 0.01 0.01 61 1007.7
20260506014055 55 0 5.0 12.0 0.00 0.01 0.01 61 1007.8
20260506013015 56 0 4.0 10.0 0.00 0.01 0.01 59 1007.7
20260506012055 57 0 6.0 12.0 0.00 0.01 0.01 58 1007.3
20260506010015 59 0 7.0 14.0 0.00 0.01 0.01 54 1007.1
20260506005055 60 0 5.0 14.0 0.00 0.01 0.01 53 1006.9
20260506004015 61 0 6.0 13.0 0.00 0.01 0.01 52 1007.1
20260506002015 62 0 4.0 11.0 0.00 0.01 0.01 52 1006.8
20260506000055 63 0 3.0 9.0 0.00 0.01 0.01 53 1007.1
20260505234135 63 0 4.0 13.0 0.00 0.01 0.01 53 1007.3
20260505233015 62 0 4.0 9.0 0.01 0.01 0.01 56 1007.1
20260505232015 61 0 3.0 12.0 0.01 0.01 0.01 56 1007.2
20260505231015 61 0 7.0 13.0 0.01 0.01 0.01 56 1007.4
20260505225015 60 0 5.0 11.0 0.01 0.01 0.01 67 1007.9
20260505224055 60 0 1.0 4.0 0.01 0.01 0.01 62 1008.4
20260505223015 61 0 2.0 4.0 0.00 0.00 0.00 54 1009.0
20260505221015 63 0 2.0 5.0 0.00 0.00 0.00 44 1008.4
20260505220015 64 0 4.0 9.0 0.00 0.00 0.00 43 1008.1
20260505215015 65 0 3.0 8.0 0.00 0.00 0.00 41 1008.2
20260505214015 67 0 5.0 9.0 0.00 0.00 0.00 39 1008.4
20260505213135 67 0 4.0 9.0 0.00 0.00 0.00 40 1008.9
20260505212017 67 0 4.0 8.0 0.00 0.00 0.00 39 1009.2
20260505211017 67 0 3.0 11.0 0.00 0.00 0.00 40 1009.5
20260505210137 66 0 4.0 12.0 0.00 0.00 0.00 41 1009.4
20260505205017 66 0 5.0 12.0 0.00 0.00 0.00 41 1009.5
20260505204017 65 0 5.0 14.0 0.00 0.00 0.00 42 1009.2
20260505203016 63 0 9.0 16.0 0.00 0.00 0.00 43 1008.5
20260505202016 63 0 7.0 14.0 0.00 0.00 0.00 44 1008.8
20260505201057 63 0 4.0 10.0 0.00 0.00 0.00 44 1009.4
20260505200016 62 0 5.0 16.0 0.00 0.00 0.00 45 1008.8
20260505195057 61 0 6.0 11.0 0.00 0.00 0.00 45 1009.0
20260505194056 62 0 6.0 13.0 0.00 0.00 0.00 45 1009.1
20260505192016 60 0 6.0 15.0 0.00 0.00 0.00 47 1008.8
20260505191016 61 0 7.0 13.0 0.00 0.00 0.00 46 1009.1
20260505190016 60 0 4.0 15.0 0.00 0.00 0.00 48 1009.0
20260505184056 60 0 7.0 13.0 0.00 0.00 0.00 48 1009.2
20260505183016 59 0 4.0 12.0 0.00 0.00 0.00 48 1009.5
20260505182016 59 0 4.0 10.0 0.00 0.00 0.00 48 1009.7
20260505181016 59 0 6.0 12.0 0.00 0.00 0.00 48 1009.8
20260505175016 60 0 6.0 14.0 0.00 0.00 0.00 47 1010.1
20260505174056 60 0 5.0 13.0 0.00 0.00 0.00 48 1010.2
20260505173136 60 0 9.0 15.0 0.00 0.00 0.00 47 1010.2
20260505172016 60 0 5.0 15.0 0.00 0.00 0.00 48 1010.5
20260505171016 59 0 8.0 16.0 0.00 0.00 0.00 48 1010.2
20260505170016 59 0 7.0 13.0 0.00 0.00 0.00 49 1010.2
20260505165016 58 0 7.0 15.0 0.00 0.00 0.00 50 1010.6
20260505164056 58 0 7.0 13.0 0.00 0.00 0.00 51 1011.1
20260505163056 57 0 6.0 12.0 0.00 0.00 0.00 51 1011.4
20260505162016 57 0 7.0 13.0 0.00 0.00 0.00 51 1011.3
20260505161016 57 0 9.0 15.0 0.00 0.00 0.00 51 1011.1
20260505153016 56 0 8.0 13.0 0.00 0.00 0.00 51 1011.2
20260505152016 55 0 6.0 16.0 0.00 0.00 0.00 52 1011.1
20260505151016 55 0 8.0 13.0 0.00 0.00 0.00 52 1011.1
20260505140136 53 0 11.0 18.0 0.00 0.00 0.00 54 1011.1
20260505125015 53 0 4.0 12.0 0.00 0.00 0.00 55 1010.7
20260505124015 53 0 5.0 12.0 0.00 0.00 0.00 55 1010.4
20260505123015 53 0 3.0 9.0 0.00 0.00 0.00 56 1010.6
20260505122015 53 0 6.0 16.0 0.00 0.00 0.00 56 1010.5
20260505120055 54 0 4.0 10.0 0.00 0.00 0.00 55 1009.9
20260505115015 55 0 6.0 14.0 0.00 0.00 0.00 55 1010.0
20260505114135 55 0 6.0 12.0 0.00 0.00 0.00 55 1010.0
20260505113055 56 0 6.0 12.0 0.00 0.00 0.00 55 1010.0
20260505112015 56 0 6.0 13.0 0.00 0.00 0.00 55 1009.8
20260505111015 57 0 6.0 11.0 0.00 0.00 0.00 54 1009.7
20260505102055 63 0 5.0 13.0 0.00 0.00 0.00 40 1009.8
20260505101015 62 0 4.0 14.0 0.00 0.00 0.00 40 1009.6
20260505100015 59 0 4.0 10.0 0.00 0.00 0.00 45 1009.3
20260505094015 58 0 1.0 3.0 0.00 0.00 0.00 47 1009.0
20260505092015 60 0.0 0.0 0.00 0.00 0.00 39 1009.0
20260505091015 61 0 0.0 2.0 0.00 0.00 0.00 38 1008.8
20260505090135 62 0.0 3.0 0.00 0.00 0.00 36 1008.9
20260505085055 61 0 1.0 3.0 0.00 0.00 0.00 36 1008.7
20260505084135 59 0 2.0 5.0 0.00 0.00 0.00 39 1008.5
20260505083015 55 0 4.0 11.0 0.00 0.00 0.00 49 1007.9
20260505082015 55 0.0 0.0 0.00 0.00 0.00 55 1007.6
20260505081015 55 0.0 0.0 0.00 0.00 0.00 49 1007.6
20260505080055 55 0.0 0.0 0.00 0.00 0.00 49 1007.7
20260505075015 55 0.0 0.0 0.00 0.00 0.00 48 1007.5
20260505074055 56 0.0 0.0 0.00 0.00 0.00 47 1007.3
20260505073015 56 0.0 0.0 0.00 0.00 0.00 48 1007.4
20260505072055 56 0.0 0.0 0.00 0.00 0.00 48 1007.7
20260505070055 56 0.0 0.0 0.00 0.00 0.00 46 1007.3
20260505065015 56 0 1.0 4.0 0.00 0.00 0.00 46 1007.1
20260505063055 57 0 0.0 2.0 0.00 0.00 0.00 44 1006.9
20260505062057 57 0 0.0 3.0 0.00 0.00 0.00 43 1006.9
20260505061017 57 0.0 0.0 0.00 0.00 0.00 41 1006.8
20260505060016 58 0.0 0.0 0.00 0.00 0.00 39 1006.8
20260505055056 58 0.0 0.0 0.00 0.00 0.00 40 1006.9
20260505054016 59 0.0 0.0 0.00 0.00 0.00 34 1006.8
20260505053016 60 0.0 1.0 0.00 0.00 0.00 36 1006.8
20260505052056 60 0.0 0.0 0.00 0.00 0.00 35 1006.9
20260505051056 61 0.0 0.0 0.00 0.00 0.00 33 1007.0